Back to catalog

BREEZE-M R/B

AliveHEO
NORAD 28925·ROCKET BODY·🇷🇺 Russia

Launched Dec 29, 2005 from Baikonur Cosmodrome

Loading…

Next Passes (next 24 hours)

TLE

FreshSource: Space-Track

Epoch: Sep 14, 2026, 12:42 UTC

1 28925U 05052B   26257.52920205 -.00000273  00000-0  00000+0 0  9997
2 28925  19.6015 309.4578 5367819 227.3345  70.8277  1.94152239146818

Track BREEZE-M R/B in real time with AllMySat

Download on the App Store